• In Hungary
  • List of Countries
  • For 7 days
  • Water Temperature
  • Satellite Maps
  • Weather Map
  • News
  • Weather Widgets
  • user-avatar
    Login

    Hourly Weather Bychiha

    Today, 16 July, Monday

    Time Temperature Precipitation Wind Pressure Humidity
    00:00 +19°C° 0 mm 1 mps 744 mmHg 92%
    01:00 +19°C° 0 mm 1 mps 744 mmHg 93%
    02:00 +18°C° 0 mm 1 mps 744 mmHg 95%
    03:00 +18°C° 0 mm 1 mps 744 mmHg 95%
    04:00 +19°C° 0 mm 1 mps 744 mmHg 94%
    05:00 +18°C° 0 mm 2 mps 744 mmHg 94%
    06:00 +20°C° 0 mm 2 mps 744 mmHg 87%
    07:00 +23°C° 0 mm 2 mps 745 mmHg 81%
    08:00 +25°C° 0 mm 2 mps 745 mmHg 74%
    09:00 +26°C° 0.5 mm 3 mps 745 mmHg 70%
    10:00 +27°C° 0.5 mm 3 mps 744 mmHg 66%
    11:00 +28°C° 0.5 mm 4 mps 744 mmHg 62%
    12:00 +29°C° 0 mm 4 mps 744 mmHg 52%
    13:00 +29°C° 0 mm 4 mps 744 mmHg 50%
    14:00 +30°C° 0 mm 3 mps 744 mmHg 51%
    15:00 +29°C° 0.1 mm 3 mps 744 mmHg 54%
    16:00 +29°C° 0.1 mm 2 mps 744 mmHg 57%
    17:00 +29°C° 0.1 mm 2 mps 744 mmHg 60%
    18:00 +27°C° 0 mm 2 mps 744 mmHg 67%
    19:00 +25°C° 0 mm 2 mps 744 mmHg 74%
    20:00 +23°C° 0 mm 2 mps 744 mmHg 81%
    21:00 +21°C° 0 mm 2 mps 744 mmHg 83%
    22:00 +20°C° 0 mm 2 mps 744 mmHg 85%
    23:00 +19°C° 0 mm 2 mps 744 mmHg 87%

    Tomorrow, 17 July, Tuesday

    Time Temperature Precipitation Wind Pressure Humidity
    00:00 +19°C° 0 mm 2 mps 744 mmHg 89%
    01:00 +18°C° 0 mm 2 mps 744 mmHg 90%
    02:00 +18°C° 0 mm 2 mps 744 mmHg 92%
    03:00 +19°C° 0 mm 3 mps 744 mmHg 89%
    04:00 +19°C° 0 mm 3 mps 744 mmHg 87%
    05:00 +20°C° 0 mm 3 mps 744 mmHg 85%
    06:00 +21°C° 0 mm 4 mps 744 mmHg 78%
    07:00 +23°C° 0 mm 4 mps 744 mmHg 70%
    08:00 +26°C° 0 mm 5 mps 744 mmHg 63%
    09:00 +27°C° 0 mm 5 mps 744 mmHg 58%
    10:00 +28°C° 0 mm 5 mps 744 mmHg 54%
    11:00 +29°C° 0 mm 5 mps 744 mmHg 49%
    12:00 +29°C° 0 mm 5 mps 743 mmHg 48%
    13:00 +29°C° 0 mm 6 mps 743 mmHg 46%
    14:00 +30°C° 0 mm 6 mps 743 mmHg 45%
    15:00 +29°C° 0 mm 5 mps 743 mmHg 47%
    16:00 +29°C° 0 mm 4 mps 743 mmHg 50%
    17:00 +28°C° 0 mm 4 mps 742 mmHg 52%
    18:00 +27°C° 0 mm 4 mps 742 mmHg 57%
    19:00 +25°C° 0 mm 3 mps 742 mmHg 62%
    20:00 +22°C° 0 mm 3 mps 742 mmHg 68%
    21:00 +22°C° 0 mm 3 mps 742 mmHg 68%
    22:00 +21°C° 0 mm 3 mps 742 mmHg 68%
    23:00 +21°C° 0 mm 3 mps 742 mmHg 68%

    Day after tomorrow, 18 July, Wednesday

    Time Temperature Precipitation Wind Pressure Humidity
    00:00 +20°C° 0 mm 3 mps 742 mmHg 69%
    01:00 +20°C° 0 mm 4 mps 742 mmHg 71%
    02:00 +20°C° 0 mm 4 mps 742 mmHg 72%
    03:00 +19°C° 0.8 mm 4 mps 742 mmHg 77%
    04:00 +19°C° 0.8 mm 4 mps 742 mmHg 82%
    05:00 +19°C° 0.8 mm 4 mps 742 mmHg 87%
    06:00 +19°C° 0.5 mm 4 mps 742 mmHg 86%
    07:00 +20°C° 0.5 mm 4 mps 741 mmHg 85%
    08:00 +20°C° 0.5 mm 4 mps 741 mmHg 84%
    09:00 +21°C° 0.9 mm 4 mps 741 mmHg 82%
    10:00 +22°C° 0.9 mm 4 mps 741 mmHg 79%
    11:00 +23°C° 0.9 mm 4 mps 741 mmHg 77%
    12:00 +23°C° 1 mm 4 mps 741 mmHg 78%
    13:00 +23°C° 1 mm 4 mps 741 mmHg 79%
    14:00 +25°C° 1 mm 4 mps 740 mmHg 80%
    15:00 +25°C° 0.5 mm 3 mps 740 mmHg 82%
    16:00 +24°C° 0.5 mm 3 mps 740 mmHg 84%
    17:00 +24°C° 0.5 mm 3 mps 740 mmHg 86%
    18:00 +22°C° 0.2 mm 3 mps 740 mmHg 87%
    19:00 +21°C° 0.2 mm 3 mps 740 mmHg 88%
    20:00 +20°C° 0.2 mm 3 mps 740 mmHg 89%
    21:00 +20°C° 0 mm 3 mps 740 mmHg 90%
    22:00 +19°C° 0 mm 3 mps 740 mmHg 91%
    23:00 +19°C° 0 mm 3 mps 740 mmHg 93%

    19 July, Thursday

    Time Temperature Precipitation Wind Pressure Humidity
    00:00 +19°C° 0 mm 3 mps 740 mmHg 94%
    01:00 +19°C° 0 mm 4 mps 740 mmHg 94%
    02:00 +19°C° 0 mm 4 mps 740 mmHg 95%
    03:00 +19°C° 0.1 mm 4 mps 740 mmHg 94%
    04:00 +18°C° 0.1 mm 4 mps 740 mmHg 94%
    05:00 +18°C° 0.1 mm 4 mps 740 mmHg 94%
    06:00 +19°C° 0 mm 4 mps 740 mmHg 91%
    07:00 +19°C° 0 mm 4 mps 740 mmHg 88%
    08:00 +20°C° 0 mm 4 mps 740 mmHg 85%
    09:00 +21°C° 0 mm 4 mps 740 mmHg 82%
    10:00 +21°C° 0 mm 5 mps 740 mmHg 80%
    11:00 +22°C° 0 mm 5 mps 740 mmHg 77%
    12:00 +22°C° 0.1 mm 5 mps 740 mmHg 76%
    13:00 +23°C° 0.1 mm 5 mps 740 mmHg 75%
    14:00 +23°C° 0.1 mm 5 mps 740 mmHg 74%
    15:00 +23°C° 0.1 mm 4 mps 740 mmHg 75%
    16:00 +22°C° 0.1 mm 4 mps 740 mmHg 77%
    17:00 +22°C° 0.1 mm 4 mps 740 mmHg 78%
    18:00 +22°C° 0.1 mm 4 mps 740 mmHg 81%
    19:00 +21°C° 0.1 mm 4 mps 740 mmHg 84%
    20:00 +20°C° 0.1 mm 3 mps 740 mmHg 86%
    21:00 +20°C° 0 mm 3 mps 740 mmHg 88%
    22:00 +20°C° 0 mm 3 mps 740 mmHg 90%
    23:00 +19°C° 0 mm 3 mps 740 mmHg 92%

    20 July, Friday

    Time Temperature Precipitation Wind Pressure Humidity
    00:00 +19°C° 0 mm 4 mps 740 mmHg 92%
    01:00 +19°C° 0 mm 4 mps 740 mmHg 92%
    02:00 +19°C° 0 mm 4 mps 740 mmHg 92%
    03:00 +19°C° 0.1 mm 4 mps 740 mmHg 93%
    04:00 +19°C° 0.1 mm 4 mps 740 mmHg 93%
    05:00 +19°C° 0.1 mm 4 mps 740 mmHg 94%
    06:00 +20°C° 0.1 mm 4 mps 740 mmHg 94%
    07:00 +20°C° 0.1 mm 4 mps 740 mmHg 94%
    08:00 +20°C° 0.1 mm 4 mps 740 mmHg 94%
    09:00 +20°C° 0.1 mm 3 mps 740 mmHg 93%
    10:00 +21°C° 0.1 mm 3 mps 740 mmHg 92%
    11:00 +21°C° 0.1 mm 3 mps 740 mmHg 90%
    12:00 +22°C° 0.3 mm 4 mps 740 mmHg 89%
    13:00 +22°C° 0.3 mm 4 mps 740 mmHg 88%
    14:00 +23°C° 0.3 mm 4 mps 740 mmHg 86%
    15:00 +22°C° 0.6 mm 4 mps 740 mmHg 88%
    16:00 +22°C° 0.6 mm 4 mps 740 mmHg 89%
    17:00 +22°C° 0.6 mm 4 mps 740 mmHg 91%
    18:00 +21°C° 0.5 mm 3 mps 739 mmHg 92%
    19:00 +21°C° 0.5 mm 3 mps 739 mmHg 93%
    20:00 +20°C° 0.5 mm 3 mps 739 mmHg 94%
    21:00 +20°C° 0 mm 3 mps 739 mmHg 95%
    22:00 +20°C° 0 mm 2 mps 738 mmHg 96%
    23:00 +19°C° 0 mm 2 mps 738 mmHg 97%

    21 July, Saturday

    Time Temperature Precipitation Wind Pressure Humidity
    00:00 +19°C° 0 mm 2 mps 738 mmHg 98%
    01:00 +19°C° 0 mm 2 mps 738 mmHg 98%
    02:00 +19°C° 0 mm 2 mps 738 mmHg 98%
    03:00 +19°C° 0 mm 2 mps 738 mmHg 98%
    04:00 +19°C° 0 mm 2 mps 738 mmHg 98%
    05:00 +19°C° 0 mm 3 mps 738 mmHg 98%
    06:00 +20°C° 0 mm 3 mps 738 mmHg 96%
    07:00 +20°C° 0 mm 3 mps 738 mmHg 94%
    08:00 +21°C° 0 mm 3 mps 738 mmHg 93%
    09:00 +22°C° 0.1 mm 3 mps 738 mmHg 91%
    10:00 +22°C° 0.1 mm 3 mps 738 mmHg 89%
    11:00 +24°C° 0.1 mm 3 mps 738 mmHg 87%
    12:00 +25°C° 0.6 mm 2 mps 738 mmHg 84%
    13:00 +26°C° 0.6 mm 2 mps 738 mmHg 82%
    14:00 +27°C° 0.6 mm 2 mps 738 mmHg 80%
    15:00 +26°C° 1.2 mm 2 mps 738 mmHg 83%
    16:00 +26°C° 1.2 mm 2 mps 737 mmHg 86%
    17:00 +25°C° 1.2 mm 2 mps 737 mmHg 89%
    18:00 +25°C° 0.8 mm 2 mps 737 mmHg 91%
    19:00 +24°C° 0.8 mm 2 mps 737 mmHg 93%
    20:00 +23°C° 0.8 mm 2 mps 737 mmHg 94%
    21:00 +22°C° 0.2 mm 1 mps 737 mmHg 95%
    22:00 +22°C° 0.2 mm 1 mps 737 mmHg 96%
    23:00 +21°C° 0.2 mm 1 mps 737 mmHg 97%
    Show more